OPS 4682 DEB, 18534

Orbit data source: Space-Track

OPS 4682 DEB, 18534 is space debris in LEO originally from a launch on Sat, 03 Apr 1965 UTC launched from the Air Force Western Test Range (AFWTR). Debris objects in space refer to the collection of defunct objects orbiting the Earth. Examples of debris include non-operational satellites, rocket bodies, and fragments generated from explosions, collisions, or faulty payload assembly.

Loading next visibility...
Identifier
18534, 1965-027AE
Orbit
LEO
Country
Flag of USUS
Related business
Manufacturer
Unknown
Mission
Spacecraft
Bus & Motor
Unknown
Mass
Unknown
Launch date (UTC)
1965-04-03 (61 years ago)
Launch vehicle
Unknown
Launch site
Air Force Western Test Range (AFWTR)
Object type
Payload
Rocket body
Debris
Shape & HBR
Unknown shape, 0.1 m
Radar Cross Section
Medium (>0.1 m² and <1 m²)

Expand to show TLE details & history
Last TLE update: 1 day ago

TLE from 1 day ago
0 OPS 4682 DEB
1 18534U 65027AE  26174.88023307  .00000646  00000-0  22362-2 0  9995
2 18534  90.2724  24.1466 0030340  91.1060 285.3739 12.96198167841861
Epoch: 2026-06-23T21:07Z
TLE epoch observation values (Epoch: 2026-06-23T21:07:32.137Z)
Latitude
16.12469°
Longitude
155.13889°
Altitude
1,273.156 km
Speed
7.223 km/s
True Right ascension
01h 36m 16s
True Declination
16° 02' 22"
Sunlit
Object was in daylight at epoch
Visualization orbit readout
Latitude
Unknown
Longitude
Unknown
Altitude
Unknown
Speed
Unknown
Apparent Right ascension
Unknown
Apparent Declination
Unknown
Sunlit
N/A
Visualization observer readout
Local Sidereal Time
08:04:26
Azimuth
Unknown
Elevation
Unknown
Doppler factor
Unknown
Orbital elements
Apogee altitude
1,297.369 km
Perigee altitude
1,250.934 km
Semi-major axis
7,652.288 km
Eccentricity
0.00303
Inclination
90.2724°
RAAN
24.1466°
Arg. of periapsis
91.106°
True anomaly
285.03833°
Mean anomaly
285.3739°
Eccentric anomaly
285.20615°
Mean motion
3.24232 °/min
Orbital period
111.03 mins
BSTAR
0.0022362
Loading maneuver chart data...
Computing Atmospheric mass density...
Loading historical data...
Loading historical data...
Loading historical data...
Loading historical data...
Loading historical data...
Loading historical data...
Loading historical data...

Documentation

Showing up to 5 results
|